Time,TemperatureF,DewpointF,PressureIn,WindDirection,WindDirectionDegrees,WindSpeedMPH,WindSpeedGustMPH,Humidity,HourlyPrecipIn,Conditions,Clouds,dailyrainin,SoftwareType,DateUTC
2013-09-23 00:00:00,82.0,81.0,29.90,SSW,210,11.0,11.0,95,-99.99,,,-99.99,,2013-09-23 04:00:00,
2013-09-23 00:43:00,82.0,81.0,29.90,SSW,210,11.0,11.0,95,-99.99,,,-99.99,,2013-09-23 04:43:00,
2013-09-23 00:53:00,82.0,81.0,29.90,SSW,210,11.0,11.0,95,-99.99,,,-99.99,,2013-09-23 04:53:00,
2013-09-23 01:00:00,82.0,82.0,29.90,SSW,200,14.0,15.0,98,-99.99,,,-99.99,,2013-09-23 05:00:00,
2013-09-23 01:22:00,82.0,82.0,29.90,SSW,200,14.0,15.0,98,-99.99,,,-99.99,,2013-09-23 05:22:00,
2013-09-23 01:34:00,82.0,82.0,29.90,SSW,200,14.0,15.0,98,-99.99,,,-99.99,,2013-09-23 05:34:00,
2013-09-23 01:43:00,82.0,82.0,29.90,SSW,200,14.0,15.0,98,-99.99,,,-99.99,,2013-09-23 05:43:00,
2013-09-23 01:53:00,82.0,82.0,29.90,SSW,200,14.0,15.0,98,-99.99,,,-99.99,,2013-09-23 05:53:00,
2013-09-23 02:00:00,83.0,82.0,29.89,SSW,200,15.0,16.0,97,-99.99,,,-99.99,,2013-09-23 06:00:00,
2013-09-23 02:41:00,83.0,82.0,29.89,SSW,200,15.0,16.0,97,-99.99,,,-99.99,,2013-09-23 06:41:00,
2013-09-23 02:52:00,83.0,82.0,29.89,SSW,200,15.0,16.0,97,-99.99,,,-99.99,,2013-09-23 06:52:00,
2013-09-23 03:21:00,83.0,82.0,29.89,SSW,210,17.0,17.0,98,-99.99,,,-99.99,,2013-09-23 07:21:00,
2013-09-23 03:32:00,83.0,82.0,29.89,SSW,210,17.0,17.0,98,-99.99,,,-99.99,,2013-09-23 07:32:00,
2013-09-23 03:42:00,83.0,82.0,29.89,SSW,210,17.0,17.0,98,-99.99,,,-99.99,,2013-09-23 07:42:00,
2013-09-23 04:00:00,83.0,82.0,29.88,SSW,200,17.0,18.0,98,-99.99,,,-99.99,,2013-09-23 08:00:00,
2013-09-23 04:22:00,83.0,82.0,29.88,SSW,200,17.0,18.0,98,-99.99,,,-99.99,,2013-09-23 08:22:00,
2013-09-23 04:31:00,83.0,82.0,29.88,SSW,200,17.0,18.0,98,-99.99,,,-99.99,,2013-09-23 08:31:00,
2013-09-23 04:42:00,83.0,82.0,29.88,SSW,200,17.0,18.0,98,-99.99,,,-99.99,,2013-09-23 08:42:00,
2013-09-23 04:52:00,83.0,82.0,29.88,SSW,200,17.0,18.0,98,-99.99,,,-99.99,,2013-09-23 08:52:00,
2013-09-23 05:00:00,81.0,78.0,29.87,WSW,240,18.0,21.0,89,-99.99,,,-99.99,,2013-09-23 09:00:00,
2013-09-23 05:21:00,81.0,78.0,29.87,WSW,240,18.0,21.0,89,-99.99,,,-99.99,,2013-09-23 09:21:00,
2013-09-23 05:33:00,81.0,78.0,29.87,WSW,240,18.0,21.0,89,-99.99,,,-99.99,,2013-09-23 09:33:00,
2013-09-23 05:42:00,81.0,78.0,29.87,WSW,240,18.0,21.0,89,-99.99,,,-99.99,,2013-09-23 09:42:00,
2013-09-23 05:53:00,81.0,78.0,29.87,WSW,240,18.0,21.0,89,-99.99,,,-99.99,,2013-09-23 09:53:00,
2013-09-23 06:42:00,83.0,82.0,29.88,South,190,15.0,17.0,98,-99.99,,,-99.99,,2013-09-23 10:42:00,
2013-09-23 07:00:00,83.0,82.0,29.90,SSW,200,16.0,17.0,98,-99.99,,,-99.99,,2013-09-23 11:00:00,
2013-09-23 07:21:00,83.0,82.0,29.90,SSW,200,16.0,17.0,98,-99.99,,,-99.99,,2013-09-23 11:21:00,
2013-09-23 07:33:00,83.0,82.0,29.90,SSW,200,16.0,17.0,98,-99.99,,,-99.99,,2013-09-23 11:33:00,
2013-09-23 07:41:00,83.0,82.0,29.90,SSW,200,16.0,17.0,98,-99.99,,,-99.99,,2013-09-23 11:41:00,
2013-09-23 07:52:00,83.0,82.0,29.90,SSW,200,16.0,17.0,98,-99.99,,,-99.99,,2013-09-23 11:52:00,
2013-09-23 08:00:00,83.0,82.0,29.91,South,190,15.0,16.0,97,-99.99,,,-99.99,,2013-09-23 12:00:00,
2013-09-23 08:22:00,83.0,82.0,29.91,South,190,15.0,16.0,97,-99.99,,,-99.99,,2013-09-23 12:22:00,
2013-09-23 08:32:00,83.0,82.0,29.91,South,190,15.0,16.0,97,-99.99,,,-99.99,,2013-09-23 12:32:00,
2013-09-23 08:42:00,83.0,82.0,29.91,South,190,15.0,16.0,97,-99.99,,,-99.99,,2013-09-23 12:42:00,
2013-09-23 08:52:00,83.0,82.0,29.91,South,190,15.0,16.0,97,-99.99,,,-99.99,,2013-09-23 12:52:00,
2013-09-23 09:00:00,83.0,83.0,29.94,South,180,15.0,16.0,98,-99.99,,,-99.99,,2013-09-23 13:00:00,
2013-09-23 09:42:00,83.0,83.0,29.94,South,180,15.0,16.0,98,-99.99,,,-99.99,,2013-09-23 13:42:00,
2013-09-23 09:52:00,83.0,83.0,29.94,South,180,15.0,16.0,98,-99.99,,,-99.99,,2013-09-23 13:52:00,
2013-09-23 10:00:00,84.0,83.0,29.93,South,170,21.0,22.0,98,-99.99,,,-99.99,,2013-09-23 14:00:00,
2013-09-23 10:21:00,84.0,83.0,29.93,South,170,21.0,22.0,98,-99.99,,,-99.99,,2013-09-23 14:21:00,
2013-09-23 10:32:00,84.0,83.0,29.93,South,170,21.0,22.0,98,-99.99,,,-99.99,,2013-09-23 14:32:00,
2013-09-23 10:42:00,84.0,83.0,29.93,South,170,21.0,22.0,98,-99.99,,,-99.99,,2013-09-23 14:42:00,
2013-09-23 10:52:00,84.0,83.0,29.93,South,170,21.0,22.0,98,-99.99,,,-99.99,,2013-09-23 14:52:00,
2013-09-23 11:00:00,84.0,84.0,29.95,South,180,17.0,18.0,98,-99.99,,,-99.99,,2013-09-23 15:00:00,
2013-09-23 11:43:00,84.0,84.0,29.95,South,180,17.0,18.0,98,-99.99,,,-99.99,,2013-09-23 15:43:00,
2013-09-23 11:54:00,84.0,84.0,29.95,South,180,17.0,18.0,98,-99.99,,,-99.99,,2013-09-23 15:54:00,
2013-09-23 12:00:00,84.0,83.0,29.95,South,170,16.0,17.0,98,-99.99,,,-99.99,,2013-09-23 16:00:00,
2013-09-23 12:43:00,84.0,83.0,29.95,South,170,16.0,17.0,98,-99.99,,,-99.99,,2013-09-23 16:43:00,
2013-09-23 12:53:00,84.0,83.0,29.95,South,170,16.0,17.0,98,-99.99,,,-99.99,,2013-09-23 16:53:00,
2013-09-23 13:00:00,85.0,84.0,29.96,South,180,15.0,16.0,98,-99.99,,,-99.99,,2013-09-23 17:00:00,
2013-09-23 13:23:00,85.0,84.0,29.96,South,180,15.0,16.0,98,-99.99,,,-99.99,,2013-09-23 17:23:00,
2013-09-23 13:34:00,85.0,84.0,29.96,South,180,15.0,16.0,98,-99.99,,,-99.99,,2013-09-23 17:34:00,
2013-09-23 13:42:00,85.0,84.0,29.96,South,180,15.0,16.0,98,-99.99,,,-99.99,,2013-09-23 17:42:00,
2013-09-23 13:52:00,85.0,84.0,29.96,South,180,15.0,16.0,98,-99.99,,,-99.99,,2013-09-23 17:52:00,
2013-09-23 14:00:00,85.0,84.0,29.93,South,180,13.0,13.0,96,-99.99,,,-99.99,,2013-09-23 18:00:00,
2013-09-23 14:42:00,85.0,84.0,29.93,South,180,13.0,13.0,96,-99.99,,,-99.99,,2013-09-23 18:42:00,
2013-09-23 14:52:00,85.0,84.0,29.93,South,180,13.0,13.0,96,-99.99,,,-99.99,,2013-09-23 18:52:00,
2013-09-23 15:00:00,86.0,84.0,29.93,South,180,10.0,11.0,94,-99.99,,,-99.99,,2013-09-23 19:00:00,
2013-09-23 15:42:00,86.0,84.0,29.93,South,180,10.0,11.0,94,-99.99,,,-99.99,,2013-09-23 19:42:00,
2013-09-23 15:53:00,86.0,84.0,29.93,South,180,10.0,11.0,94,-99.99,,,-99.99,,2013-09-23 19:53:00,
2013-09-23 16:00:00,86.0,84.0,29.93,SSE,160,10.0,11.0,93,-99.99,,,-99.99,,2013-09-23 20:00:00,
2013-09-23 16:42:00,86.0,84.0,29.93,SSE,160,10.0,11.0,93,-99.99,,,-99.99,,2013-09-23 20:42:00,
2013-09-23 16:52:00,86.0,84.0,29.93,SSE,160,10.0,11.0,93,-99.99,,,-99.99,,2013-09-23 20:52:00,
2013-09-23 17:22:00,86.0,85.0,29.92,ESE,120,7.0,9.0,95,-99.99,,,-99.99,,2013-09-23 21:22:00,
2013-09-23 17:34:00,86.0,85.0,29.92,ESE,120,7.0,9.0,95,-99.99,,,-99.99,,2013-09-23 21:34:00,
2013-09-23 17:44:00,86.0,85.0,29.92,ESE,120,7.0,9.0,95,-99.99,,,-99.99,,2013-09-23 21:44:00,
2013-09-23 18:00:00,85.0,85.0,29.94,SE,130,8.0,9.0,98,-99.99,,,-99.99,,2013-09-23 22:00:00,
2013-09-23 18:43:00,85.0,85.0,29.94,SE,130,8.0,9.0,98,-99.99,,,-99.99,,2013-09-23 22:43:00,
2013-09-23 18:54:00,85.0,85.0,29.94,SE,130,8.0,9.0,98,-99.99,,,-99.99,,2013-09-23 22:54:00,
2013-09-23 19:00:00,85.0,84.0,29.95,SE,140,13.0,14.0,98,-99.99,,,-99.99,,2013-09-23 23:00:00,
2013-09-23 19:42:00,85.0,84.0,29.95,SE,140,13.0,14.0,98,-99.99,,,-99.99,,2013-09-23 23:42:00,
2013-09-23 19:53:00,85.0,84.0,29.95,SE,140,13.0,14.0,98,-99.99,,,-99.99,,2013-09-23 23:53:00,
2013-09-23 20:00:00,84.0,84.0,29.96,SSE,150,13.0,14.0,98,-99.99,,,-99.99,,2013-09-24 00:00:00,
2013-09-23 20:22:00,84.0,84.0,29.96,SSE,150,13.0,14.0,98,-99.99,,,-99.99,,2013-09-24 00:22:00,
2013-09-23 20:32:00,84.0,84.0,29.96,SSE,150,13.0,14.0,98,-99.99,,,-99.99,,2013-09-24 00:32:00,
2013-09-23 20:42:00,84.0,84.0,29.96,SSE,150,13.0,14.0,98,-99.99,,,-99.99,,2013-09-24 00:42:00,
2013-09-23 20:52:00,84.0,84.0,29.96,SSE,150,13.0,14.0,98,-99.99,,,-99.99,,2013-09-24 00:52:00,
2013-09-23 21:00:00,81.0,81.0,29.96,South,170,25.0,26.0,98,-99.99,,,-99.99,,2013-09-24 01:00:00,
2013-09-23 21:43:00,81.0,81.0,29.96,South,170,25.0,26.0,98,-99.99,,,-99.99,,2013-09-24 01:43:00,
2013-09-23 21:52:00,81.0,81.0,29.96,South,170,25.0,26.0,98,-99.99,,,-99.99,,2013-09-24 01:52:00,
2013-09-23 22:22:00,82.0,81.0,29.97,SSE,150,14.0,16.0,98,-99.99,,,-99.99,,2013-09-24 02:22:00,
2013-09-23 22:32:00,82.0,81.0,29.97,SSE,150,14.0,16.0,98,-99.99,,,-99.99,,2013-09-24 02:32:00,
2013-09-23 23:00:00,83.0,82.0,29.99,SE,140,11.0,13.0,98,-99.99,,,-99.99,,2013-09-24 03:00:00,
2013-09-23 23:21:00,83.0,82.0,29.99,SE,140,11.0,13.0,98,-99.99,,,-99.99,,2013-09-24 03:21:00,
2013-09-23 23:35:00,83.0,82.0,29.99,SE,140,11.0,13.0,98,-99.99,,,-99.99,,2013-09-24 03:35:00,
2013-09-23 23:44:00,83.0,82.0,29.99,SE,140,11.0,13.0,98,-99.99,,,-99.99,,2013-09-24 03:44:00,
2013-09-23 23:54:00,83.0,82.0,29.99,SE,140,11.0,13.0,98,-99.99,,,-99.99,,2013-09-24 03:54:00,